Погода в Тростном

Россия / Липецкая область     52°41′56″N   38°22′26″E
темп.,
°C
ветер,
м/с
пор.,
м/с
влажн.,
%
обл.,
%
осадки,
мм/ч
давл.,
гПа
погр.,
м
10 мая, пн
пн1000:00+3ссз499210 0.0 1020223
03:00+3сз513875 0.0 1021276
06:00+3ссз7158292 0.0 1022409
09:00+8с91461100 0.0 10231306
12:00+11с101351100 0.0 10221438
15:00+12ссв91360100 0.0 10221307
18:00+10ссв91665100 0.0 1021883
21:00+9ссв91874100 0.0 1022612
11 мая, вт
вт1100:00+9ссв9198194 0.0 1021491
03:00+9ссв8188699 0.1 1021494
06:00+9ссв81989100 0.0 1020466
09:00+10св71488100 0.0 1021509
12:00+16всв81274100 0.0 10201217
15:00+10вюв5109057 1.8 1023650
18:00+12вюв597214 0.1 10241232
21:00+8в410875 0.1 1025227
12 мая, ср
ср1200:00+6в36937 0.0 1026101
03:00+6в3391100 0.0 102645
06:00+7св3689100 0.0 1025162
09:00+10всв5878100 0.0 1024507
12:00+11св4479100 0.9 1022731
15:00+12в3471100 1.1 10211024
18:00+13в58724 0.0 10191073
21:00+10в6138495 0.1 1019477
13 мая, чт
чт1300:00+10вюв5990100 0.2 1020285
03:00+10в3792100 0.3 1019156
06:00+10в389398 0.0 1019245
09:00+15юв3573100 0.0 1018480
12:00+18ююв3458100 0.0 10181275
15:00+20ююв35536 0.0 10171650
18:00+19юв356312 0.0 1017350
21:00+15в2270100 0.0 101811
14 мая, пт
пт1400:00+13вюв3693100 0.0 1018107
03:00+13в3795100 0.0 1017130
06:00+13в4109398 0.0 1017235
09:00+18вюв61077100 0.0 1016518
12:00+22юв79605 0.0 10151239
15:00+22ю6964100 0.1 1015795
18:00+22юв51170100 0.1 1012449
21:00+18юв41186100 0.1 1012216